Regional Weather Roundup
Issued by NWS

Home | Current Version | Previous Version | Text Only | Print | Product List | Glossary On
Versions: 1 2 3 4 5 6 7 8 9 10 11 12 13 14 15 16 17 18 19 20 21 22 23 24 25 26 27 28 29 30 31 32 33 34 35 36 37 38 39 40 41 42 43 44 45 46 47 48 49 50
000
ASUS46 KSEW 020010
RWRWA

WASHINGTON REGIONAL WEATHER ROUNDUP
NATIONAL WEATHER SERVICE SEATTLE WA
500 PM PDT WED APR 01 2015

NOTE:"FAIR" INDICATES FEW OR NO CLOUDS BELOW 12,000 FEET WITH NO
SIGNIFICANT WEATHER AND/OR OBSTRUCTIONS TO VISIBILITY.

WAZ505-507>509-020100-
SEATTLE, TACOMA, EVERETT, AND VICINITY

CITY           SKY/WX    TMP DP  RH WIND       PRES   REMARKS
EVERETT        PTSUNNY   51  31  46 SW10      30.25S
6HR MIN TEMP:  46; 6HR MAX TEMP:  52;

BOEING FIELD   PTSUNNY   50  39  66 S14       30.27S
6HR MIN TEMP:  50; 6HR MAX TEMP:  57;

RENTON         LGT RAIN  48  42  80 S9        30.27F
6HR MIN TEMP:  45; 6HR MAX TEMP:  54; 6HR PCP:  0.47;

SEATAC AIRPORT PTSUNNY   46  42  86 SE12      30.27F
6HR MIN TEMP:  45; 6HR MAX TEMP:  55; 6HR PCP:  0.09;

JBLM-MCCHORD   PTSUNNY   50  43  76 S10       30.28S
6HR MIN TEMP:  45; 6HR MAX TEMP:  55; 6HR PCP:  0.04;

PUYALLUP       DRIZZLE   45  45 100 SW6       30.28F
BREMERTON      PTSUNNY   48  43  81 E5        30.28R
6HR MIN TEMP:  46; 6HR MAX TEMP:  55;

JBLM-FT LEWIS  MOSUNNY   50  46  87 SE8       30.27S
6HR MIN TEMP:  45; 6HR MAX TEMP:  54; 6HR PCP:  0.09;

TACOMA NARROWS CLOUDY    48  41  76 S8        30.27F
6HR MIN TEMP:  48; 6HR MAX TEMP:  55;

$$

WAZ001-503-506-510-514-515-020100-
NORTH INTERIOR

CITY           SKY/WX    TMP DP  RH WIND       PRES   REMARKS
BELLINGHAM     PTSUNNY   53  37  54 S9        30.24S
6HR MIN TEMP:  49; 6HR MAX TEMP:  54;

FRIDAY HARBOR  PTSUNNY   52  37  56 W5        30.26S
6HR MIN TEMP:  48; 6HR MAX TEMP:  53;

EASTSOUND      MOSUNNY   50  36  57 CALM      30.24S
PORT ANGELES   MOSUNNY   50  41  71 NW17      30.27R
6HR MIN TEMP:  47; 6HR MAX TEMP:  53; 6HR PCP: TRACE;

NAS WHIDBEY    PTSUNNY   52  40  63 SW10      30.27S
6HR MIN TEMP:  50; 6HR MAX TEMP:  55;

ARLINGTON      MOSUNNY   54  37  54 NW13      30.26S
6HR MIN TEMP:  48; 6HR MAX TEMP:  54;

BURLINGTON     SUNNY     52  37  58 MISG      30.26S
$$

WAZ020-022-039-040-504-511-512-020100-
SOUTHWEST INTERIOR

CITY           SKY/WX    TMP DP  RH WIND       PRES   REMARKS
SHELTON        PTSUNNY   49  42  77 SW13      30.23S
6HR MIN TEMP:  49; 6HR MAX TEMP:  54; 6HR PCP: TRACE;

OLYMPIA        PTSUNNY   50  42  74 S10       30.28S
6HR MIN TEMP:  46; 6HR MAX TEMP:  52; 6HR PCP:  0.01;

CHEHALIS       MOCLDY    46  45  93 SW5       30.29S
KELSO          MOSUNNY   52  39  62 CALM      30.33F
6HR MIN TEMP:  45; 6HR MAX TEMP:  54; 6HR PCP:  0.04;

VANCOUVER      PTSUNNY   48  42  80 CALM      30.31F
6HR MIN TEMP:  44; 6HR MAX TEMP:  54; 6HR PCP:  0.08;

SCAPPOOSE, OR  CLOUDY    48  42  80 SE3       30.31R
6HR MIN TEMP:  44; 6HR MAX TEMP:  53;

PORTLAND, OR   LGT RAIN  49  42  77 VRB3      30.32F
6HR MIN TEMP:  45; 6HR MAX TEMP:  55; 6HR PCP:  0.03;

$$

WAZ021-516-517-020100-
WASHINGTON COAST

CITY           SKY/WX    TMP DP  RH WIND       PRES   REMARKS
FORKS          PTSUNNY   51  40  65 W12       30.29S
6HR MIN TEMP:  45; 6HR MAX TEMP:  52; 6HR PCP:  0.02;

HOQUIAM        PTSUNNY   52  40  63 W15       30.29S
6HR MIN TEMP:  47; 6HR MAX TEMP:  53; 6HR PCP: TRACE;

ASTORIA, OR    PTSUNNY   50  41  71 W7        30.31S
6HR MIN TEMP:  46; 6HR MAX TEMP:  52; 6HR PCP:  0.06;

$$

WAZ019-023-024-040-518-519-020100-
CASCADE MOUNTAINS AND COLUMBIA GORGE

CITY           SKY/WX    TMP DP  RH WIND       PRES   REMARKS
TROUTDALE, OR  CLOUDY    47  40  76 NE5       30.31F
6HR MIN TEMP:  46; 6HR MAX TEMP:  54; 6HR PCP:  0.11;

THE DALLES, OR MOSUNNY   52  36  54 NW25G38   30.22S
6HR MIN TEMP:  52; 6HR MAX TEMP:  59;

$$

WAZ026-027-041>044-520-521-020100-
EAST SLOPES

CITY           SKY/WX    TMP DP  RH WIND       PRES   REMARKS
OMAK           MOSUNNY   54  25  32 N9        30.06S
6HR MIN TEMP:  51; 6HR MAX TEMP:  58; 6HR PCP: TRACE;

WENATCHEE      SUNNY     59  19  21 NW17G28   30.09F
6HR MIN TEMP:  52; 6HR MAX TEMP:  60;

ELLENSBURG     MOSUNNY   51  27  39 W31G38    30.13S
6HR MIN TEMP:  50; 6HR MAX TEMP:  54;

YAKIMA         MOSUNNY   60  24  25 W15       30.12F
6HR MIN TEMP:  53; 6HR MAX TEMP:  61;

$$

WAZ028-034-035-020100-
COLUMBIA BASIN

CITY           SKY/WX    TMP DP  RH WIND       PRES   REMARKS
EPHRATA        PTSUNNY   59  18  20 W12       30.06F
6HR MIN TEMP:  53; 6HR MAX TEMP:  60;

MOSES LAKE     PTSUNNY   59  19  21 NW10      30.08F
6HR MIN TEMP:  53; 6HR MAX TEMP:  60; 6HR PCP: TRACE;

PASCO          LGT RAIN  56  25  30 CALM      30.14F
6HR MIN TEMP:  54; 6HR MAX TEMP:  61; 6HR PCP: TRACE;

HERMISTON, OR  MOSUNNY   59  25  27 W10       30.13F
6HR MIN TEMP:  52; 6HR MAX TEMP:  61;

$$

WAZ036>038-020100-
NORTHEAST WASHINGTON

CITY           SKY/WX    TMP DP  RH WIND       PRES   REMARKS
SPOKANE GEIGER PTSUNNY   47  28  47 SW16      30.07R
6HR MIN TEMP:  37; 6HR MAX TEMP:  48; 6HR PCP:  0.02;

SPOKANE FELTS  PTSUNNY   38  35  89 CALM      30.10F
6HR MIN TEMP:  37; 6HR MAX TEMP:  52; 6HR PCP:  0.11;

FAIRCHILD AFB  PTSUNNY   45  27  48 SW8       30.06F
6HR MIN TEMP:  36; 6HR MAX TEMP:  48; 6HR PCP:  0.01;

COEURDALENE,ID PTSUNNY   41  34  75 SE9       30.09S
6HR MIN TEMP:  36; 6HR MAX TEMP:  48; 6HR PCP:  0.06;

DEER PARK      PTSUNNY   46  26  45 SW3       30.07F
6HR MIN TEMP:  39; 6HR MAX TEMP:  49; 6HR PCP:  0.02;

$$

WAZ029>033-020100-
SOUTHEAST WASHINGTON

CITY           SKY/WX    TMP DP  RH WIND       PRES   REMARKS
PULLMAN        PTSUNNY   45  29  53 W15G21    30.12S
6HR MIN TEMP:  40; 6HR MAX TEMP:  48; 6HR PCP: TRACE;

LEWISTON, ID   MOSUNNY   52  22  30 W15       30.10S
6HR MIN TEMP:  47; 6HR MAX TEMP:  54; 6HR PCP: TRACE;

WALLA WALLA    PTSUNNY   55  25  31 SW13      30.13F
6HR MIN TEMP:  49; 6HR MAX TEMP:  56;

PENDLETON, OR  SUNNY     54  23  30 W14       30.13F
6HR MIN TEMP:  47; 6HR MAX TEMP:  55;

$$


USA.gov is the U.S. government's official web portal to all federal, state and local government web resources and services.